Flag for U.S.A. Weather past 2 weeks in Beaumont, Texas, U.S.A.

Now
76 °F

Light rain. Mostly cloudy.


Feels Like: 75 °F
Forecast: 76 / 90 °F
Wind: 7 mph from Northeast

Location: Jefferson County Airport

Current Time: Jun 30, 2015 at 4:53:11 PM

Latest Report: Jun 30, 2015 at 3:53 PM


Visibility: 10 mi

Pressure: 30.06 "Hg

Humidity: 94%

Dew point: 74 °F

Location of BeaumontLocation

Historic Weather in Beaumont — Graph

°F

Beaumont temperature yesterday

Maximum temperature yesterday: 89 °F (at 11:53 AM)
Minimum temperature yesterday: 74 °F (at 3:53 AM)
Average temperature yesterday: 82 °F

Past Weeks' High & Low Weather Summary

 TemperatureHumidityPressure
High93 °F (Jun 23, 1:53 PM)100% (Jun 29, 3:53 AM)30.16 "Hg (Jun 29, 3:53 AM)
Low74 °F (Jun 29, 3:53 AM)49% (Jun 23, 2:53 PM)29.85 "Hg (Jun 15, 6:02 PM)
Average82 °F81%30.02 "Hg
* Reported Jun 15 3:00 PM — Jun 30 2:53 PM, Beaumont, Weather by CustomWeather, © 2015

Note: Actual official high and low records may vary slightly from our data, if they occured in-between our weather recording intervals... More about our weather records

Advertising

Beaumont weather history for previous 24 hours

 ConditionsComfort  
Time TempWeatherWind HumidityBarometerVisibility
2:53 PM
Tue, Jun 30
76 °FThunderstorms. Mostly cloudy.6 mph88%30.06 "Hg7 mi
1:53 PM79 °FThundershowers. Fog.No wind88%30.05 "Hg5 mi
1:00 PM79 °FRain. Broken clouds.7 mph84%30.05 "Hg5 mi
11:53 AM80 °FThundershowers. Broken clouds.6 mph85%30.06 "Hg10 mi
10:53 AM82 °FThunderstorms. Partly sunny.5 mph85%30.05 "Hg6 mi
9:53 AM86 °FPartly sunny.5 mph80%30.05 "Hg8 mi
8:58 AM85 °FPartly sunny.3 mph86%30.05 "Hg8 mi
7:53 AM81 °FFog.3 mph94%30.03 "Hg6 mi
6:53 AM76 °FHaze.No wind97%30.02 "Hg6 mi
5:53 AM77 °FClear.No wind96%30.02 "Hg8 mi
4:53 AM77 °FClear.3 mph94%30.01 "Hg7 mi
3:53 AM77 °FClear.No wind96%30.02 "Hg7 mi
2:53 AM78 °FClear.N/A93%30.03 "Hg8 mi
1:53 AM78 °FClear.3 mph93%30.02 "Hg8 mi
12:53 AM78 °FClear.N/A93%30.02 "Hg8 mi
11:53 PM
Mon, Jun 29
79 °FClear.No wind94%30.03 "Hg8 mi
10:53 PM80 °FClear.5 mph90%30.02 "Hg8 mi
9:53 PM80 °FClear.8 mph90%29.99 "Hg8 mi
8:53 PM81 °FPassing clouds.5 mph88%29.98 "Hg9 mi
7:53 PM82 °FSunny.8 mph85%29.97 "Hg8 mi
6:53 PM85 °FPassing clouds.10 mph77%29.97 "Hg9 mi
5:53 PM86 °FPassing clouds.9 mph80%29.97 "Hg7 mi
4:53 PM84 °FPassing clouds.8 mph80%29.98 "Hg9 mi
Weather by CustomWeather, © 2015

See weather overviewHow to use our weather pages